Whidbey Island, WA

2:07 AM PDT on October 21, 2017 (GMT -0700)
Whidbey Island Naval Air Station

Weather History for KNUW - November, 2012

Change the Weather History Date:

Sunday, November 4, 2012

  Actual Average Record
Temperature  
Mean Temperature 56 °F -  
Max Temperature 63 °F 51 °F 66 °F (2016)
Min Temperature 51 °F 38 °F 23 °F (2003)
Degree Days  
Heating Degree Days 8    
Growing Degree Days 6 (Base 50)    
Moisture  
Dew Point 52 °F    
Average Humidity 88    
Maximum Humidity 94    
Minimum Humidity 77    
Precipitation  
Precipitation 0.19 in - - ()
Sea Level Pressure  
Sea Level Pressure 30.19 in    
Wind  
Wind Speed 10 mph (ESE)    
Max Wind Speed 24 mph    
Max Gust Speed 36 mph    
Visibility 8 miles    
Events Rain    
Averages and records for this station are not official NWS values.
T = Trace of Precipitation, MM = Missing Value Source: NWS Daily Summary

Daily Weather History Graph

Daily Weather History Graph

Search for Another Location

Airport or City:

Trip Planner

Search our weather history database for the weather conditions in past years. The results will help you decide how hot, cold, wet, or windy it might be!

Date:

Astronomy

Nov. 04, 2012 Rise Set
Actual Time 7:01 AM PST 4:45 PM PST
Civil Twilight 6:28 AM PST 5:18 PM PST
Nautical Twilight 5:51 AM PST 5:55 PM PST
Astronomical Twilight 5:15 AM PST 6:32 PM PST
Moon 9:25 PM PST (11/4) 11:54 AM PST (11/4)
Length of Visible Light 10h 49m
Length of Day
9h 43m
Waning Gibbous, 71% of the Moon is Illuminated
Nov 4
Waning Gibbous
Nov 6
Last Quarter
Nov 13
New
Nov 20
First Quarter
Nov 28
Full

Hourly Weather History & Observations

Time (PST) Temp. Dew Point Humidity Pressure Visibility Wind Dir Wind Speed Gust Speed Precip Events Conditions
12:24 AM 51.8 °F 50.0 °F 94% 30.17 in 10.0 mi East 4.6 mph - 0.00 in   Overcast
12:56 AM 52.0 °F 50.0 °F 93% 30.18 in 8.0 mi ESE 6.9 mph - 0.00 in   Overcast
1:14 AM 53.6 °F 51.8 °F 94% 30.16 in 2.0 mi East 5.8 mph - 0.00 in   Light Drizzle
1:37 AM 53.6 °F 51.8 °F 94% 30.16 in 2.0 mi East 4.6 mph - 0.00 in   Overcast
1:56 AM 54.0 °F 52.0 °F 93% 30.18 in 2.0 mi ESE 8.1 mph - 0.00 in   Overcast
1:07 AM 53.6 °F 51.8 °F 94% 30.16 in 2.0 mi ESE 9.2 mph - N/A   Overcast
1:33 AM 55.4 °F 51.8 °F 88% 30.18 in 2.0 mi ESE 6.9 mph - 0.00 in Rain Light Rain
1:56 AM 54.0 °F 52.0 °F 93% 30.19 in 2.0 mi East 8.1 mph - 0.01 in Rain Light Rain
2:05 AM 53.6 °F 51.8 °F 94% 30.17 in 2.0 mi East 9.2 mph - 0.00 in   Overcast
2:18 AM 53.6 °F 51.8 °F 94% 30.18 in 10.0 mi East 9.2 mph - 0.00 in   Overcast
2:56 AM 54.0 °F 51.1 °F 90% 30.20 in 8.0 mi East 10.4 mph - 0.00 in Rain Light Rain
3:29 AM 53.6 °F 51.8 °F 94% 30.17 in 8.0 mi ESE 10.4 mph - 0.00 in Rain Light Rain
3:56 AM 54.0 °F 51.1 °F 90% 30.18 in 8.0 mi East 10.4 mph - 0.00 in Rain Light Rain
4:11 AM 53.6 °F 51.8 °F 94% 30.18 in 10.0 mi ESE 9.2 mph - 0.00 in   Overcast
4:56 AM 54.0 °F 51.1 °F 90% 30.19 in 10.0 mi ESE 10.4 mph - 0.00 in   Overcast
5:56 AM 55.0 °F 51.1 °F 86% 30.18 in 10.0 mi East 9.2 mph - N/A   Overcast
6:56 AM 55.9 °F 52.0 °F 87% 30.17 in 10.0 mi ESE 12.7 mph - N/A   Overcast
7:22 AM 55.4 °F 51.8 °F 88% 30.16 in 10.0 mi ESE 13.8 mph 20.7 mph N/A   Overcast
7:56 AM 57.0 °F 53.1 °F 87% 30.18 in 10.0 mi East 11.5 mph - N/A   Overcast
8:56 AM 57.9 °F 53.1 °F 84% 30.17 in 10.0 mi ESE 17.3 mph 25.3 mph N/A   Overcast
9:56 AM 60.1 °F 54.0 °F 80% 30.18 in 10.0 mi SE 13.8 mph 23.0 mph N/A   Overcast
10:25 AM 60.8 °F 53.6 °F 77% 30.17 in 10.0 mi SSE 16.1 mph 27.6 mph N/A   Overcast
10:56 AM 60.1 °F 54.0 °F 80% 30.17 in 10.0 mi SE 18.4 mph 25.3 mph N/A   Overcast
11:56 AM 60.1 °F 55.0 °F 83% 30.16 in 10.0 mi SSE 24.2 mph 28.8 mph N/A   Overcast
12:56 PM 61.0 °F 55.0 °F 81% 30.15 in 10.0 mi SE 19.6 mph 28.8 mph N/A   Overcast
1:56 PM 62.1 °F 55.0 °F 78% 30.16 in 10.0 mi SSE 24.2 mph 32.2 mph N/A   Overcast
2:56 PM 62.1 °F 55.0 °F 78% 30.13 in 10.0 mi SE 21.9 mph 28.8 mph N/A   Overcast
3:56 PM 62.1 °F 55.9 °F 80% 30.12 in 10.0 mi SSE 24.2 mph 35.7 mph N/A   Overcast
4:56 PM 61.0 °F 55.9 °F 83% 30.17 in 10.0 mi SE 24.2 mph 34.5 mph N/A   Overcast
5:56 PM 57.9 °F 55.0 °F 90% 30.20 in 8.0 mi SW 12.7 mph 23.0 mph 0.01 in Rain Light Rain
6:14 PM 51.8 °F 48.2 °F 88% 30.21 in 4.0 mi WSW 10.4 mph - 0.03 in Rain Rain
6:56 PM 53.1 °F 50.0 °F 89% 30.21 in 9.0 mi ESE 3.5 mph - 0.09 in Rain Light Rain
7:56 PM 55.0 °F 52.0 °F 89% 30.21 in 7.0 mi East 9.2 mph - 0.03 in Rain Light Rain
8:34 PM 53.6 °F 51.8 °F 94% 30.23 in 3.0 mi NW 4.6 mph - 0.03 in Rain Light Rain
8:56 PM 54.0 °F 52.0 °F 93% 30.24 in 3.0 mi NW 5.8 mph - 0.05 in Rain Light Rain
9:20 PM 55.4 °F 51.8 °F 88% 30.22 in 9.0 mi NW 6.9 mph - 0.00 in Rain Light Rain
9:35 PM 55.4 °F 51.8 °F 88% 30.25 in 10.0 mi NW 6.9 mph - 0.00 in Rain Light Rain
9:56 PM 54.0 °F 52.0 °F 93% 30.26 in 10.0 mi West 3.5 mph - 0.00 in Rain Light Rain
10:17 PM 53.6 °F 51.8 °F 94% 30.24 in 10.0 mi WSW 4.6 mph - 0.00 in   Overcast
10:56 PM 53.1 °F 50.0 °F 89% 30.30 in 10.0 mi WSW 8.1 mph - 0.00 in   Overcast